Regional Weather Roundup
Issued by NWS

Home | Current Version | Previous Version | Graphics & Text | Print | Product List | Glossary On
Versions: 1 2 3 4 5 6 7 8 9 10 11 12 13 14 15 16 17 18 19 20 21 22 23 24 25 26 27 28 29 30 31 32 33 34 35 36 37 38 39 40 41 42 43 44 45 46 47 48 49 50
079
ASUS43 KLSX 270759
RWRMO

WEATHER SUMMARY FOR MISSOURI
NATIONAL WEATHER SERVICE SPRINGFIELD MO
300 AM CDT THU JUL 27 2017

NOTE: "FAIR" INDICATES FEW OR NO CLOUDS BELOW 12,000 FEET WITH NO
       SIGNIFICANT WEATHER AND/OR OBSTRUCTIONS TO VISIBILITY.
       CURRENT SKY AND/OR WEATHER CONDITIONS ARE NOT AVAILABLE FOR
       CHILLICOTHE AND FARMINGTON.

MOZ001>031-035>038-043-044-053-054-270900-
...NORTHERN AND WESTERN MISSOURI...

CITY           SKY/WX    TMP DP  RH WIND       PRES   REMARKS
KANSAS CTY INT LGT RAIN  74  73  97 NE5       29.95S
KANSAS C DTWN  LGT RAIN  75  75 100 NE5       29.93S
LEE`S SUMMIT   TSTM      73  73 100 E15       29.96R VSB 1/2
ST JOSEPH      CLOUDY    76  76 100 N3        29.94F
CHILLICOTHE      N/A     75  75 100 CALM      29.95S
KIRKSVILLE     LGT RAIN  75  74  96 N6        29.96R FOG

$$
MOZ066>068-077>081-088>096-101>105-270900-
...SOUTHWEST MISSOURI...

CITY           SKY/WX    TMP DP  RH WIND       PRES   REMARKS
SPRINGFIELD    CLOUDY    82  72  71 SW9       29.97S
JOPLIN         CLOUDY    83  74  74 S14       29.96S

$$
MOZ032>034-039>042-045>050-055>058-069>072-270900-
...CENTRAL MISSOURI...

CITY           SKY/WX    TMP DP  RH WIND       PRES   REMARKS
COLUMBIA       LGT RAIN  74  73  97 W14       29.98R
JEFFERSON CITY RAIN      74  74 100 W16       29.97R
ROLLA          LGT RAIN  80  73  79 SW6       29.98S
SEDALIA        LGT RAIN  73  73 100 CALM      29.97F
WARRENSBURG    TSTM      72  70  94 NE17      29.95F
OSAGE BEACH    RAIN      74  71  91 N5        30.00R

$$
MOZ051-052-059>065-270900-
...EAST CENTRAL MISSOURI...

CITY           SKY/WX    TMP DP  RH WIND       PRES   REMARKS
ST LOUIS INTL  TSTM      78  73  84 N16       29.95R
SPIRIT OF STL  LGT RAIN  77  75  93 N8        29.93R
ST CHARLES     TSTM      74  73  97 NW9       29.92S FOG

$$
MOZ072>076-082>087-097>100-106>115-270900-
...SOUTH CENTRAL AND SOUTHEAST MISSOURI...

CITY           SKY/WX    TMP DP  RH WIND       PRES   REMARKS
CAPE GIRARDEAU CLEAR     77  72  84 CALM      29.95S
FARMINGTON     PTCLDY    80  72  76 SW5       29.97S
POPLAR BLUFF   CLEAR     77  76  96 SW6       29.95F
WEST PLAINS    PTCLDY    78  71  79 SW6       30.02S

$$




USA.gov is the U.S. government's official web portal to all federal, state and local government web resources and services.